User: anonymous
Location: Unspecified
(0.0000°N, 0.0000°E)
Time: 08:45:41
(UTC+02:00)
Language:

Sapphire - Orbit

View from above orbital plane
View from above orbital plane
View from above satellite
View from above satellite

Ground track
Ground track

The orbit data is extracted from the following two-line orbital elements,

1 26932U 01043D   14244.11390677  .00000035  00000-0  45503-4 0  6906
2 26932 067.0566 203.6908 0006657 293.8101 066.2302 14.30024693674503
Epoch (UTC): 01 September 2014 02:44:01
Eccentricity: 0.0006657
inclination: 67.0566°
perigee height: 787 km
apogee height: 796 km
right ascension of ascending node: 203.6908°
argument of perigee: 293.8101°
revolutions per day: 14.30024693
mean anomaly at epoch: 66.2302°
orbit number at epoch: 67450

The dashed part of the orbit path shows where the satellite is in the earth's shadow,  

DLR